Location: Bzie G�rne
(49.9469°N, 18.6597°E)
Time: 19:08:57
(UTC+00:00)

Daily predictions for brighter satellites

Satellite Brightness Start Highest point End
(mag) Time Altitude Azimuth Time Altitude Azimuth Time Altitude Azimuth
Cosmos 2278 4.2 16:51:29 10° SW 16:57:08 68° WNW 17:02:51 10° NNE
Cosmos 1844 4.5 16:52:22 10° NNW 16:57:39 34° NE 17:02:51 10° ESE
MOS 1 Rocket 3.6 16:54:32 10° NNE 16:59:35 85° ESE 17:04:52 10° SSW
H-2A R/B 2.6 16:55:35 10° N 16:59:39 62° WNW 17:03:41 10° SSW
SKYMED 2 3.5 16:56:14 10° NNE 17:00:37 76° ESE 17:04:57 10° S
Cosmos 2278 Rocket 4.0 16:59:08 10° N 17:02:22 15° NNE 17:05:35 10° ENE
Cosmos 2360 Rocket 3.2 16:58:17 10° SSE 17:02:41 24° ESE 17:07:06 10° NE
HJ-1C 4.1 17:01:00 10° SE 17:04:00 32° ENE 17:06:59 10° N
Cosmos 1805 Rocket 4.1 17:00:12 10° SSW 17:04:34 67° WNW 17:09:00 10° N
Cosmos 1470 Rocket 4.3 17:01:19 10° SSE 17:05:16 31° E 17:09:11 10° NNE
Meteor 1-19 Rocket 4.4 16:59:37 10° N 17:05:32 57° ENE 17:11:13 10° SSE
Ariane Rocket 4.5 17:03:21 10° E 17:06:40 18° NE 17:10:00 10° NNE
CZ-4B R/B 1.1 17:06:45 10° NNE 17:09:48 86° E 17:12:52 10° SSW
Meteor 2-4 Rocket 4.3 17:04:49 10° N 17:10:16 39° ENE 17:15:47 10° SE
Cosmos 1602 4.0 17:07:02 10° SSE 17:10:46 48° E 17:14:35 10° NNE
Cosmos 2333 Rocket 3.8 17:10:33 10° ESE 17:12:58 13° E 17:15:24 10° ENE
Okean O Rocket 3.9 17:10:30 10° SSW 17:14:18 29° W 17:18:08 10° NW
Cosmos 1500 4.0 17:15:02 10° SSE 17:18:14 27° E 17:21:26 10° NNE
Cosmos 1980 Rocket 3.3 17:12:53 10° SW 17:18:22 48° NW 17:23:54 10° NNE
SL-08 RB Rocket 4.0 17:15:44 10° SE 17:20:01 44° ENE 17:24:22 10° N
Cosmos 1689 Rocket 2.4 17:21:41 10° NNE 17:24:26 40° E 17:27:09 10° S
SJ-11-01 4.3 17:19:58 10° SSE 17:24:40 84° ENE 17:29:23 10° NNW
Cosmos 1933 Rocket 4.2 17:22:15 10° SSE 17:26:09 33° E 17:30:06 10° NNE
ERBS 2.4 17:22:53 10° WSW 17:26:12 70° NNW 17:29:29 10° NE
Cosmos 1666 Rocket 3.7 17:23:15 10° SSW 17:27:35 81° W 17:31:56 10° N
Cosmos 1862 Rocket 3.6 17:23:21 10° N 17:27:53 87° E 17:32:22 10° S
BREEZE-M DEB (TANK) 3.7 17:24:44 10° SSW 17:29:01 22° SSE 17:30:49 14° ESE
CZ-2C R/B 4.4 17:23:38 10° S 17:29:09 49° W 17:34:30 10° NNW
Cosmos 2322 Rocket 2.2 17:26:41 10° SSW 17:32:13 64° ESE 17:37:48 10° NNE
Aureole 2 Rocket 1.4 17:29:53 10° NNW 17:32:27 81° ENE 17:34:56 10° SSE
Cosmos 2242 Rocket 3.9 17:29:07 10° N 17:33:28 43° ENE 17:37:43 10° SSE
Nadezhda 3 Rocket 4.0 17:28:41 10° N 17:35:06 83° E 17:41:29 10° S
Sich 1 4.4 17:31:02 10° SSW 17:35:15 44° WNW 17:39:30 10° N
Resurs 01 Rocket 3.5 17:35:07 12° ENE 17:35:51 13° NE 17:37:48 10° NNE
Cosmos 1461 3.6 17:32:58 10° SW 17:37:41 64° NW 17:42:25 10° NE
ATLAS 5 CENTAUR R/B 3.7 17:25:36 10° WSW 17:38:19 55° NW 17:42:00 10° NE
Meteor 1-25 Rocket 4.4 17:33:22 10° SSW 17:39:08 81° WNW 17:44:52 10° N
COSMOS 2428 4.1 17:39:24 10° SE 17:42:30 16° ESE 17:42:30 16° ESE
Cosmos 2074 Rocket 4.4 17:36:59 10° SSW 17:43:14 71° WNW 17:49:30 10° N
Cosmos 2154 Rocket 3.9 17:37:12 10° S 17:43:24 81° E 17:49:38 10° NNE
YAOGAN 1 3.2 17:39:49 10° S 17:44:06 59° W 17:48:23 10° NNW
Helios 1A Rocket 2.8 17:40:09 10° SSE 17:44:13 88° ENE 17:48:17 10° NNW
Cosmos 1295 Rocket 4.4 17:38:18 10° S 17:44:30 71° E 17:50:40 10° NNE
Abrixas rocket 1.7 17:42:35 10° WSW 17:45:03 57° S 17:45:57 32° ESE
Meteor 1-14 Rocket 4.1 17:41:22 10° S 17:46:51 64° E 17:52:20 10° NNE
FALCON 9 DEB 3.6 17:43:46 10° WNW 17:46:52 45° N 17:48:33 22° ENE
Cosmos 1610 Rocket 4.5 17:40:54 10° S 17:47:07 85° E 17:53:26 10° N
ASTEX 1 4.3 17:43:07 10° NNE 17:47:08 25° E 17:50:35 12° SE
COSMO-SKYMED 1 4.2 17:44:34 10° N 17:48:37 38° WNW 17:52:37 10° SW
SJ-6B 3.5 17:46:54 16° SE 17:49:43 35° ENE 17:53:26 10° N
Cosmos 2219 Rocket 3.2 17:45:46 10° SSE 17:49:55 22° E 17:53:41 12° NE
GP-B 3.1 17:47:20 10° SSE 17:51:42 60° E 17:56:05 10° N
MetOp-A 4.2 17:47:54 10° SE 17:53:06 55° ENE 17:58:20 10° N
Cosmos 1992 Rocket 3.9 17:50:47 10° SSW 17:56:01 84° ESE 18:01:18 10° NNE
SL-16 R/B 2.5 17:51:08 10° SW 17:56:48 73° WNW 18:02:30 10° NNE
ARGOS 3.5 17:51:46 10° S 17:57:10 68° WSW 18:02:37 10° NNW
USA 234 3.7 17:52:33 15° ENE 17:57:37 39° SE 18:03:41 10° SSW
FALCON 9 DEB 3.5 17:56:17 10° WNW 17:59:23 47° N 18:00:32 30° ENE
Meteor 1-13 Rocket 4.5 17:54:18 10° N 18:00:08 52° ENE 18:05:51 10° SSE
SeaSat 1 2.4 17:56:22 10° NE 18:01:18 66° ESE 18:06:12 10° SSW
SJ 16-02 2.6 17:58:32 10° N 18:02:02 22° NE 18:02:34 22° ENE
Resurs 1-3 4.5 18:01:24 26° E 18:02:32 30° ENE 18:06:22 10° N
Okean 1-7 2.9 17:58:57 10° N 18:03:20 70° E 18:07:39 10° SSE
OBJECT-B 1.4 18:03:22 34° ENE 18:03:27 35° ENE 18:06:26 10° N
Cosmos 1633 Rocket 4.4 17:59:32 10° SSW 18:03:45 43° WNW 18:08:01 10° N
CZ-2C R/B 2.6 18:01:21 10° NNE 18:06:54 81° ESE 18:12:17 10° SSW
IRS-1A Rocket 4.4 18:03:52 14° SE 18:08:32 53° ENE 18:13:55 10° N
H-2A R/B 3.6 18:03:37 10° SSW 18:08:43 40° W 18:13:51 10° NNW
CZ-4 R/B 3.6 18:05:26 10° SSW 18:08:43 26° W 18:12:04 10° NW
Cosmos 2322 4.1 18:04:11 10° S 18:09:26 38° ESE 18:14:40 10° NE
SAR-Lupe-4 4.1 18:05:57 10° N 18:09:29 59° WNW 18:13:01 10° SSW
USA 305 3.5 18:08:49 10° WNW 18:12:58 48° N 18:14:50 28° ENE
DMSP B5D2-2 4.0 18:08:06 10° NNE 18:13:19 63° ESE 18:18:28 10° S
SL-8 Rocket 4.0 18:09:14 10° S 18:15:21 60° E 18:21:27 10° NNE
Gbstr 26 Del rocket 3.5 18:11:09 10° W 18:15:42 71° N 18:18:27 29° ENE
Cosmos 2237 4.2 18:10:19 10° SSW 18:16:04 90° ESE 18:21:51 10° NNE
Cosmos 962 Rocket 4.4 18:11:11 10° S 18:17:25 87° E 18:23:46 10° N
SL-4 R/B 1.4 18:14:28 10° WNW 18:18:00 88° SSW 18:18:38 57° ESE
Cosmos 1869 Rocket 3.6 18:16:09 10° S 18:20:21 50° E 18:24:38 10° NNE
USA 307 3.5 18:20:08 10° WNW 18:24:18 48° N 18:25:41 34° NE
USA 186 2.3 18:25:07 39° NW 18:25:07 39° NW 18:26:55 10° NNW
FALCON 9 DEB 4.1 18:22:14 10° WNW 18:25:28 38° SSW 18:26:13 33° S
ATLAS CENTAUR R/B 0.9 18:22:12 10° SW 18:25:50 88° ESE 18:26:57 42° NE
Cosmos 1339 Rocket 4.4 18:19:49 10° N 18:26:03 88° E 18:32:20 10° S
ERS-2 3.7 18:23:17 10° N 18:26:41 36° WNW 18:30:03 10° SW
USA 306 3.5 18:23:33 10° WNW 18:27:43 48° N 18:28:56 36° NE
Cosmos 1378 3.6 18:26:12 10° N 18:29:16 44° NE 18:29:16 44° NE
FALCON 9 DEB 3.3 18:26:48 10° WNW 18:29:48 54° N 18:29:48 54° N
Cosmos 1844 Rocket 3.3 18:24:49 10° NW 18:30:15 53° WSW 18:35:38 10° S
Cosmos 2366 rocket 4.0 18:24:08 10° S 18:30:21 64° E 18:36:38 10° NNE
FALCON 9 DEB 3.4 18:28:44 10° WNW 18:31:45 52° N 18:31:45 52° N
Cosmos 1666 2.6 18:31:04 10° SSW 18:34:46 81° W 18:38:33 10° N
USA 308 3.5 18:30:45 10° WNW 18:34:55 49° N 18:35:51 41° NE
Cosmos 1777 Rocket 3.9 18:29:52 10° NNW 18:35:09 87° WSW 18:37:59 28° SSE
SPOT 3 Rocket 3.8 18:37:59 44° E 18:38:39 47° ENE 18:43:39 10° N
Cosmos 2341 Rocket 4.1 18:32:32 10° SSW 18:38:51 77° W 18:45:09 10° N
Meteor 1-5 Rocket 4.3 18:33:51 10° SSW 18:39:13 76° WNW 18:44:47 10° N
Cosmos 2333 4.1 18:34:20 10° SSW 18:39:55 69° ESE 18:45:37 10° NNE
Okean 3 3.3 18:37:37 10° N 18:41:54 87° E 18:42:57 51° SSE
Cosmos 1844 4.4 18:36:27 10° NW 18:42:04 53° WSW 18:46:58 13° S
Ariane Rocket 2.9 18:42:04 26° SSE 18:44:59 86° WSW 18:50:08 10° NNW
Cosmos 2360 Rocket 2.5 18:40:34 10° SW 18:46:11 66° WNW 18:51:52 10° NNE
Cosmos 2221 Rocket 3.8 18:41:51 10° N 18:45:39 51° NE 18:45:39 51° NE
Cosmos 2278 Rocket 2.4 18:42:22 10° NNW 18:47:54 50° NE 18:48:36 47° ENE
Cosmos 1727 Rocket 3.8 18:43:52 10° N 18:50:04 75° E 18:52:57 34° SSE
Meteor 2-20 4.3 18:45:54 10° N 18:52:00 70° ENE 18:54:04 43° SSE
Cosmos 2333 Rocket 2.0 18:50:33 10° SSW 18:56:12 73° ESE 19:01:56 10° NNE
Cosmos 1821 Rocket 4.3 18:57:21 43° ENE 18:57:21 43° ENE 19:02:21 10° NNE
Cosmos 2218 Rocket 4.0 18:50:59 10° S 18:57:24 84° W 19:03:51 10° N
ERBS 4.3 18:59:56 10° WNW 19:02:19 25° NNW 19:02:19 25° NNW
Cosmos 1000 Rocket 4.5 18:57:10 10° N 19:03:23 58° ENE 19:03:53 56° E
Cosmos 1943 Rocket 3.8 19:02:52 10° N 19:06:52 20° NE 19:06:52 20° NE
MetOp-B 4.3 19:08:50 56° NE 19:08:50 56° NE 19:13:39 10° N
Resurs 01 Rocket 2.1 19:12:41 52° N 19:12:41 52° N 19:16:05 10° NNW
Cosmos 2123 Rocket 4.5 19:10:19 10° N 19:15:27 44° NE 19:15:27 44° NE
Cosmos 2322 Rocket 4.0 19:11:52 10° WSW 19:16:42 29° NW 19:21:35 10° NNE
Lacrosse 4 Rocket 3.8 19:13:45 10° SSW 19:14:29 15° SSW 19:14:29 15° SSW
COSMOS 2428 3.0 19:20:35 10° SSW 19:32:11 - NNE 19:24:51 53° SSW
ASTEX 1 4.3 19:21:41 10° N 19:26:22 46° WNW 19:30:11 15° SW
Meteor 1-11 Rocket 4.5 19:27:32 10° SSW 19:33:05 51° WNW 19:38:33 10° N
Cosmos 2219 Rocket 2.3 19:27:43 10° SW 19:33:18 71° WNW 19:38:57 10° NNE
OBJECT-B 3.8 19:36:26 15° WNW 19:36:26 15° WNW 19:37:56 10° NW
SeaSat 1 4.4 19:34:21 10° NNE 19:38:29 27° NW 19:42:36 10° W
Terra 4.0 19:42:56 17° NNE 19:42:56 17° NNE 19:44:10 10° N
SJ 16-02 2.7 19:36:37 10° NNW 19:39:34 37° NW 19:39:34 37° NW
USA 234 3.2 19:39:54 64° NE 19:41:02 83° NNW 19:47:36 10° WSW
USA 281 4.2 19:47:39 34° NNE 19:47:39 34° NNE 19:52:42 10° NNW
Cosmos 2369 Rocket 4.0 19:47:45 10° NNW 19:50:42 21° NNE 19:50:42 21° NNE
BREEZE-M DEB (TANK) 4.4 19:49:48 10° W 19:51:09 28° W 19:51:09 28° W
ATLAS CENTAUR R/B 4.3 20:02:37 10° WNW 20:03:11 12° WNW 20:03:11 12° WNW
Cosmos 2278 Rocket 3.8 20:26:47 10° NW 20:30:28 29° W 20:30:28 29° W
Cosmos 2333 Rocket 4.1 20:36:15 10° W 20:41:03 27° NW 20:45:55 10° NNE
Cosmos 1943 Rocket 4.1 20:46:03 10° NNW 20:48:24 26° NNW 20:48:24 26° NNW
